Weather in Vasil'yevskiy

Russia / Tula Oblast     54°27′33″N   38°10′50″E
temp.,
°C
wind,
m/s
gust,
m/s
humid.,
%
clouds,
%
prec.,
mm/h
press.,
hPa
HPBL,
m
15 august, mon
mon1500:00+18ene226592 0.0 102018
03:00+17ese33728 0.0 102040
06:00+17e357281 0.0 102176
09:00+22e46565 0.0 1020399
12:00+26ese57468 0.0 10211383
15:00+27ese554078 0.0 10202005
18:00+25e4750100 0.0 1019249
21:00+20e41151100 0.0 1020198
16 august, tue
tue1600:00+19e4145254 0.0 1021298
03:00+17e4136443 0.0 1021253
06:00+16e4117193 0.0 1021238
09:00+22ese69525 0.0 1022558
12:00+26ese68405 0.0 10211424
15:00+27e68385 0.0 10201770
18:00+25e58458 0.0 1019401
21:00+20ene411556 0.0 1020177
17 august, wed
wed1700:00+19ene5144941 0.0 1019305
03:00+17ene5115876 0.0 1018232
06:00+16e496852 0.0 1018180
09:00+22e6953100 0.0 1018368
12:00+23e4851100 0.0 1018334
15:00+29e673680 0.0 10171842
18:00+26ene594485 0.0 1017357
21:00+21ene411505 0.0 1017161
18 august, thu
thu1800:00+19e412577 0.0 1017221
03:00+17e48615 0.0 1018137
06:00+16ene49655 0.0 1018156
09:00+22ene58489 0.0 1018423
12:00+26ene78363 0.0 10171215
15:00+29e68332 0.0 10161795
18:00+25ese69486 0.0 1017458
21:00+19ene4116885 0.0 1018226
19 august, fri
fri1900:00+19ene51262100 0.0 1018326
03:00+17ene4116882 0.0 1019256
06:00+17e41064100 0.0 1019273
09:00+18e61591100 1.2 1020792
12:00+17e71391100 0.5 1020525
15:00+19e71476100 0.5 1021581
18:00+20e81367100 0.0 1020885
21:00+20ese714555 0.0 1021752